Time,TemperatureF,DewpointF,PressureIn,WindDirection,WindDirectionDegrees,WindSpeedMPH,WindSpeedGustMPH,Humidity,HourlyPrecipIn,Conditions,Clouds,dailyrainin,SoftwareType,DateUTC
2013-03-17 00:14:00,57.9,49.0,29.76,SSW,213,0.0,1.0,71,0.00,,,0.00,weatherlink.com 1.10,2013-03-17 04:14:00,
2013-03-17 00:29:00,-999.0,-99.9,29.77,North,-999,-999.0,-999.0,-999,0.00,,,0.00,weatherlink.com 1.10,2013-03-17 04:29:00,
2013-03-17 00:44:00,-999.0,-99.9,29.78,North,-999,-999.0,-999.0,-999,0.00,,,0.00,weatherlink.com 1.10,2013-03-17 04:44:00,
2013-03-17 00:59:00,-999.0,-99.9,29.79,North,-999,-999.0,-999.0,-999,0.00,,,0.00,weatherlink.com 1.10,2013-03-17 04:59:00,
2013-03-17 01:14:00,-999.0,-99.9,29.79,North,-999,-999.0,-999.0,-999,0.00,,,0.00,weatherlink.com 1.10,2013-03-17 05:14:00,
2013-03-17 01:29:00,-999.0,-99.9,29.79,North,-999,-999.0,-999.0,-999,0.00,,,0.00,weatherlink.com 1.10,2013-03-17 05:29:00,
2013-03-17 01:44:00,-999.0,-99.9,29.79,North,-999,-999.0,-999.0,-999,0.00,,,0.00,weatherlink.com 1.10,2013-03-17 05:44:00,
2013-03-17 01:59:00,-999.0,-99.9,29.79,North,-999,-999.0,-999.0,-999,0.00,,,0.00,weatherlink.com 1.10,2013-03-17 05:59:00,
2013-03-17 02:15:00,-999.0,-99.9,29.80,North,-999,-999.0,-999.0,-999,0.00,,,0.00,weatherlink.com 1.10,2013-03-17 06:15:00,
2013-03-17 02:30:00,-999.0,-99.9,29.80,North,-999,-999.0,-999.0,-999,0.00,,,0.00,weatherlink.com 1.10,2013-03-17 06:30:00,
2013-03-17 02:45:00,-999.0,-99.9,29.80,North,-999,-999.0,-999.0,-999,0.00,,,0.00,weatherlink.com 1.10,2013-03-17 06:45:00,
2013-03-17 03:00:00,-999.0,-99.9,29.80,North,-999,-999.0,-999.0,-999,0.00,,,0.00,weatherlink.com 1.10,2013-03-17 07:00:00,
2013-03-17 03:15:00,-999.0,-99.9,29.80,North,-999,-999.0,-999.0,-999,0.00,,,0.00,weatherlink.com 1.10,2013-03-17 07:15:00,
2013-03-17 03:30:00,-999.0,-99.9,29.82,North,-999,-999.0,-999.0,-999,0.00,,,0.00,weatherlink.com 1.10,2013-03-17 07:30:00,
2013-03-17 03:45:00,-999.0,-99.9,29.81,North,-999,-999.0,-999.0,-999,0.00,,,0.00,weatherlink.com 1.10,2013-03-17 07:45:00,
2013-03-17 04:00:00,-999.0,-99.9,29.82,North,-999,-999.0,-999.0,-999,0.00,,,0.00,weatherlink.com 1.10,2013-03-17 08:00:00,
2013-03-17 04:15:00,-999.0,-99.9,29.82,North,-999,-999.0,-999.0,-999,0.00,,,0.00,weatherlink.com 1.10,2013-03-17 08:15:00,
2013-03-17 04:30:00,-999.0,-99.9,29.82,North,-999,-999.0,-999.0,-999,0.00,,,0.00,weatherlink.com 1.10,2013-03-17 08:30:00,
2013-03-17 04:45:00,-999.0,-99.9,29.81,North,-999,-999.0,-999.0,-999,0.00,,,0.00,weatherlink.com 1.10,2013-03-17 08:45:00,
2013-03-17 05:00:00,-999.0,-99.9,29.82,North,-999,-999.0,-999.0,-999,0.00,,,0.00,weatherlink.com 1.10,2013-03-17 09:00:00,
2013-03-17 05:15:00,-999.0,-99.9,29.82,North,-999,-999.0,-999.0,-999,0.00,,,0.00,weatherlink.com 1.10,2013-03-17 09:15:00,
2013-03-17 05:31:00,-999.0,-99.9,29.82,North,-999,-999.0,-999.0,-999,0.00,,,0.00,weatherlink.com 1.10,2013-03-17 09:31:00,
2013-03-17 05:46:00,-999.0,-99.9,29.84,North,-999,-999.0,-999.0,-999,0.00,,,0.00,weatherlink.com 1.10,2013-03-17 09:46:00,
2013-03-17 06:01:00,-999.0,-99.9,29.84,North,-999,-999.0,-999.0,-999,0.00,,,0.00,weatherlink.com 1.10,2013-03-17 10:01:00,
2013-03-17 06:16:00,-999.0,-99.9,29.85,North,-999,-999.0,-999.0,-999,0.00,,,0.00,weatherlink.com 1.10,2013-03-17 10:16:00,
2013-03-17 06:46:00,-999.0,-99.9,29.87,North,-999,-999.0,-999.0,-999,0.00,,,0.00,weatherlink.com 1.10,2013-03-17 10:46:00,
2013-03-17 07:01:00,-999.0,-99.9,29.88,North,-999,-999.0,-999.0,-999,0.00,,,0.00,weatherlink.com 1.10,2013-03-17 11:01:00,
2013-03-17 07:16:00,-999.0,-99.9,29.89,North,-999,-999.0,-999.0,-999,0.00,,,0.00,weatherlink.com 1.10,2013-03-17 11:16:00,
2013-03-17 07:31:00,-999.0,-99.9,29.89,North,-999,-999.0,-999.0,-999,0.00,,,0.00,weatherlink.com 1.10,2013-03-17 11:31:00,
2013-03-17 07:46:00,-999.0,-99.9,29.90,North,-999,-999.0,-999.0,-999,0.00,,,0.00,weatherlink.com 1.10,2013-03-17 11:46:00,
2013-03-17 08:01:00,-999.0,-99.9,29.91,North,-999,-999.0,-999.0,-999,0.00,,,0.00,weatherlink.com 1.10,2013-03-17 12:01:00,
2013-03-17 08:16:00,-999.0,-99.9,29.91,North,-999,-999.0,-999.0,-999,0.00,,,0.00,weatherlink.com 1.10,2013-03-17 12:16:00,
2013-03-17 08:31:00,-999.0,-99.9,29.93,North,-999,-999.0,-999.0,-999,0.00,,,0.00,weatherlink.com 1.10,2013-03-17 12:31:00,
2013-03-17 08:47:00,-999.0,-99.9,29.95,North,-999,-999.0,-999.0,-999,0.00,,,0.00,weatherlink.com 1.10,2013-03-17 12:47:00,
2013-03-17 09:02:00,-999.0,-99.9,29.96,North,-999,-999.0,-999.0,-999,0.00,,,0.00,weatherlink.com 1.10,2013-03-17 13:02:00,
2013-03-17 09:17:00,43.5,41.0,29.96,SE,128,0.0,2.0,92,0.00,,,0.00,weatherlink.com 1.10,2013-03-17 13:17:00,
2013-03-17 09:32:00,43.4,42.0,29.96,ESE,111,0.0,3.0,93,0.01,,,0.01,weatherlink.com 1.10,2013-03-17 13:32:00,
2013-03-17 09:47:00,43.0,41.0,29.97,ESE,111,0.0,2.0,94,0.01,,,0.01,weatherlink.com 1.10,2013-03-17 13:47:00,
2013-03-17 10:02:00,42.8,42.0,29.97,ESE,105,2.0,2.0,95,0.02,,,0.02,weatherlink.com 1.10,2013-03-17 14:02:00,
2013-03-17 10:17:00,42.5,41.0,29.97,ESE,115,2.0,2.0,94,0.02,,,0.02,weatherlink.com 1.10,2013-03-17 14:17:00,
2013-03-17 10:32:00,42.2,41.0,29.98,East,84,0.0,2.0,95,0.01,,,0.02,weatherlink.com 1.10,2013-03-17 14:32:00,
2013-03-17 10:47:00,42.1,41.0,29.98,East,97,0.0,2.0,95,0.01,,,0.02,weatherlink.com 1.10,2013-03-17 14:47:00,
2013-03-17 11:02:00,41.5,40.0,29.99,NE,55,1.0,7.0,93,0.00,,,0.02,weatherlink.com 1.10,2013-03-17 15:02:00,
2013-03-17 11:17:00,41.2,40.0,30.00,ESE,105,0.0,6.0,94,0.00,,,0.02,weatherlink.com 1.10,2013-03-17 15:17:00,
2013-03-17 11:32:00,41.0,39.0,30.01,East,86,0.0,5.0,94,0.00,,,0.02,weatherlink.com 1.10,2013-03-17 15:32:00,
2013-03-17 11:47:00,40.7,39.0,30.02,East,93,0.0,5.0,95,0.01,,,0.03,weatherlink.com 1.10,2013-03-17 15:47:00,
2013-03-17 12:02:00,40.7,40.0,30.02,ESE,110,3.0,3.0,96,0.01,,,0.03,weatherlink.com 1.10,2013-03-17 16:02:00,
2013-03-17 12:17:00,40.2,39.0,30.02,East,84,2.0,6.0,96,0.02,,,0.04,weatherlink.com 1.10,2013-03-17 16:17:00,
2013-03-17 12:32:00,40.4,39.0,30.02,ESE,109,2.0,3.0,96,0.02,,,0.04,weatherlink.com 1.10,2013-03-17 16:32:00,
2013-03-17 12:47:00,40.4,39.0,30.02,East,95,1.0,3.0,96,0.01,,,0.04,weatherlink.com 1.10,2013-03-17 16:47:00,
2013-03-17 13:02:00,40.2,39.0,30.02,East,92,2.0,4.0,95,0.01,,,0.04,weatherlink.com 1.10,2013-03-17 17:02:00,
2013-03-17 13:17:00,40.1,39.0,30.01,East,90,3.0,6.0,95,0.00,,,0.04,weatherlink.com 1.10,2013-03-17 17:17:00,
2013-03-17 13:32:00,40.0,39.0,30.01,ENE,65,0.0,6.0,95,0.00,,,0.04,weatherlink.com 1.10,2013-03-17 17:32:00,
2013-03-17 13:49:00,39.8,39.0,30.01,ENE,61,4.0,6.0,95,0.00,,,0.04,weatherlink.com 1.10,2013-03-17 17:49:00,
2013-03-17 14:02:00,39.5,38.0,30.01,ENE,63,1.0,6.0,94,0.00,,,0.04,weatherlink.com 1.10,2013-03-17 18:02:00,
2013-03-17 14:17:00,39.4,38.0,30.01,East,100,1.0,6.0,94,0.00,,,0.04,weatherlink.com 1.10,2013-03-17 18:17:00,
2013-03-17 14:32:00,39.5,38.0,30.00,East,85,0.0,5.0,94,0.00,,,0.04,weatherlink.com 1.10,2013-03-17 18:32:00,
2013-03-17 14:47:00,39.2,38.0,30.01,East,101,1.0,5.0,94,0.00,,,0.04,weatherlink.com 1.10,2013-03-17 18:47:00,
2013-03-17 15:02:00,39.1,38.0,30.00,East,99,1.0,3.0,95,0.00,,,0.04,weatherlink.com 1.10,2013-03-17 19:02:00,
2013-03-17 15:17:00,38.8,38.0,30.00,ESE,111,0.0,5.0,96,0.00,,,0.04,weatherlink.com 1.10,2013-03-17 19:17:00,
2013-03-17 15:32:00,38.7,38.0,30.00,ESE,105,2.0,4.0,96,0.00,,,0.04,weatherlink.com 1.10,2013-03-17 19:32:00,
2013-03-17 15:47:00,38.5,38.0,30.01,East,92,3.0,5.0,96,0.00,,,0.04,weatherlink.com 1.10,2013-03-17 19:47:00,
2013-03-17 16:02:00,38.5,38.0,30.01,ENE,76,0.0,3.0,96,0.00,,,0.04,weatherlink.com 1.10,2013-03-17 20:02:00,
2013-03-17 16:17:00,38.1,37.0,30.02,ESE,113,0.0,4.0,96,0.00,,,0.04,weatherlink.com 1.10,2013-03-17 20:17:00,
2013-03-17 16:32:00,38.2,37.0,30.02,East,98,3.0,3.0,95,0.00,,,0.04,weatherlink.com 1.10,2013-03-17 20:32:00,
2013-03-17 16:47:00,38.2,37.0,30.03,East,94,0.0,5.0,95,0.00,,,0.04,weatherlink.com 1.10,2013-03-17 20:47:00,
2013-03-17 17:02:00,38.1,36.0,30.03,ESE,104,1.0,3.0,93,0.00,,,0.04,weatherlink.com 1.10,2013-03-17 21:02:00,
2013-03-17 17:32:00,37.9,36.0,30.04,East,88,1.0,6.0,94,0.00,,,0.04,weatherlink.com 1.10,2013-03-17 21:32:00,
2013-03-17 17:47:00,37.7,36.0,30.04,East,97,0.0,5.0,95,0.00,,,0.04,weatherlink.com 1.10,2013-03-17 21:47:00,
2013-03-17 18:17:00,37.5,37.0,30.06,ENE,60,0.0,5.0,96,0.00,,,0.04,weatherlink.com 1.10,2013-03-17 22:17:00,
2013-03-17 18:32:00,37.4,36.0,30.06,ESE,103,3.0,4.0,96,0.01,,,0.05,weatherlink.com 1.10,2013-03-17 22:32:00,
2013-03-17 18:47:00,37.1,36.0,30.06,East,95,3.0,7.0,96,0.02,,,0.06,weatherlink.com 1.10,2013-03-17 22:47:00,
2013-03-17 19:02:00,36.8,36.0,30.07,East,82,1.0,6.0,96,0.03,,,0.07,weatherlink.com 1.10,2013-03-17 23:02:00,
2013-03-17 19:17:00,36.7,36.0,30.07,ENE,61,0.0,7.0,96,0.08,,,0.12,weatherlink.com 1.10,2013-03-17 23:17:00,
2013-03-17 19:32:00,36.7,36.0,30.08,East,98,0.0,5.0,96,0.10,,,0.15,weatherlink.com 1.10,2013-03-17 23:32:00,
2013-03-17 19:47:00,36.7,36.0,30.09,East,98,2.0,3.0,97,0.16,,,0.22,weatherlink.com 1.10,2013-03-17 23:47:00,
2013-03-17 20:03:00,36.4,36.0,30.10,ESE,103,0.0,2.0,97,0.20,,,0.28,weatherlink.com 1.10,2013-03-18 00:03:00,
2013-03-17 20:17:00,36.4,36.0,30.10,East,97,0.0,2.0,97,0.21,,,0.33,weatherlink.com 1.10,2013-03-18 00:17:00,
2013-03-17 20:32:00,36.2,36.0,30.10,East,98,0.0,2.0,97,0.25,,,0.40,weatherlink.com 1.10,2013-03-18 00:32:00,
2013-03-17 20:48:00,36.1,35.0,30.11,East,98,0.0,0.0,97,0.24,,,0.46,weatherlink.com 1.10,2013-03-18 00:48:00,
2013-03-17 21:03:00,36.1,35.0,30.12,East,96,0.0,2.0,97,0.22,,,0.50,weatherlink.com 1.10,2013-03-18 01:03:00,
2013-03-17 21:18:00,35.9,35.0,30.14,ESE,109,0.0,5.0,97,0.19,,,0.53,weatherlink.com 1.10,2013-03-18 01:18:00,
2013-03-17 21:33:00,35.8,35.0,30.14,ESE,107,3.0,5.0,97,0.16,,,0.57,weatherlink.com 1.10,2013-03-18 01:33:00,
2013-03-17 21:48:00,35.7,35.0,30.14,ESE,102,2.0,4.0,96,0.12,,,0.59,weatherlink.com 1.10,2013-03-18 01:48:00,
2013-03-17 22:03:00,35.5,35.0,30.15,East,87,2.0,5.0,96,0.11,,,0.61,weatherlink.com 1.10,2013-03-18 02:03:00,
2013-03-17 22:18:00,35.5,35.0,30.15,East,99,0.0,3.0,96,0.09,,,0.62,weatherlink.com 1.10,2013-03-18 02:18:00,
2013-03-17 22:33:00,35.2,34.0,30.16,ESE,102,1.0,5.0,96,0.06,,,0.63,weatherlink.com 1.10,2013-03-18 02:33:00,
2013-03-17 22:48:00,35.2,34.0,30.16,East,101,0.0,1.0,96,0.05,,,0.64,weatherlink.com 1.10,2013-03-18 02:48:00,
2013-03-17 23:03:00,35.4,35.0,30.16,ENE,76,0.0,4.0,97,0.07,,,0.68,weatherlink.com 1.10,2013-03-18 03:03:00,
2013-03-17 23:18:00,-999.0,-99.9,30.16,North,-999,-999.0,-999.0,-999,0.06,,,0.68,weatherlink.com 1.10,2013-03-18 03:18:00,
2013-03-17 23:33:00,-999.0,-99.9,30.17,North,-999,-999.0,-999.0,-999,0.05,,,0.68,weatherlink.com 1.10,2013-03-18 03:33:00,
2013-03-17 23:48:00,-999.0,-99.9,30.17,North,-999,-999.0,-999.0,-999,0.04,,,0.68,weatherlink.com 1.10,2013-03-18 03:48:00,